TimeIST,TemperatureF,Dew PointF,Humidity,Sea Level PressureIn,VisibilityMPH,Wind Direction,Wind SpeedMPH,Gust SpeedMPH,PrecipitationIn,Events,Conditions,WindDirDegrees,DateUTC
12:10 AM,80.6,73.4,79,29.86,3.1,NW,8.1,-,N/A,,Haze,310,2013-03-24 18:40:00
12:40 AM,80.6,71.6,74,29.86,3.1,NW,8.1,-,N/A,,Haze,310,2013-03-24 19:10:00
1:10 AM,80.6,71.6,74,29.83,3.1,NNW,6.9,-,N/A,,Haze,330,2013-03-24 19:40:00
1:40 AM,80.6,69.8,70,29.83,3.1,NW,4.6,-,N/A,,Haze,320,2013-03-24 20:10:00
2:10 AM,80.6,69.8,70,29.83,3.1,NW,3.5,-,N/A,,Haze,320,2013-03-24 20:40:00
2:30 AM,78,71,73,29.83,1,North,4.6,,,,Haze,0,2013-03-24 21:00:00
2:40 AM,80.6,69.8,70,29.83,3.1,NNW,3.5,-,N/A,,Haze,330,2013-03-24 21:10:00
3:10 AM,80.6,69.8,70,29.83,3.1,NW,5.8,-,N/A,,Haze,320,2013-03-24 21:40:00
3:40 AM,78.8,69.8,74,29.80,3.1,North,3.5,-,N/A,,Haze,10,2013-03-24 22:10:00
4:10 AM,78.8,69.8,74,29.80,3.1,North,4.6,-,N/A,,Haze,10,2013-03-24 22:40:00
4:40 AM,78.8,69.8,74,29.83,3.1,North,5.8,-,N/A,,Haze,360,2013-03-24 23:10:00
5:10 AM,78.8,69.8,74,29.83,3.1,NNW,5.8,-,N/A,,Haze,340,2013-03-24 23:40:00
5:30 AM,78,69,68,29.82,1,North,3.5,,,,Haze,0,2013-03-25 00:00:00
5:40 AM,78.8,69.8,74,29.83,3.1,North,4.6,-,N/A,,Haze,10,2013-03-25 00:10:00
6:10 AM,78.8,69.8,74,29.83,3.1,North,5.8,-,N/A,,Haze,360,2013-03-25 00:40:00
6:40 AM,78.8,69.8,74,29.83,3.1,North,3.5,-,N/A,,Haze,360,2013-03-25 01:10:00
7:10 AM,78.8,69.8,74,29.86,3.1,North,3.5,-,N/A,,Haze,350,2013-03-25 01:40:00
7:40 AM,78.8,69.8,74,29.86,3.1,North,6.9,-,N/A,,Haze,350,2013-03-25 02:10:00
8:10 AM,80.6,69.8,70,29.86,3.1,NNW,6.9,-,N/A,,Haze,340,2013-03-25 02:40:00
8:30 AM,80,70,65,29.88,1,NW,4.6,,,,Smoke,320,2013-03-25 03:00:00
8:40 AM,80.6,69.8,70,29.89,3.1,NNW,4.6,-,N/A,,Haze,330,2013-03-25 03:10:00
9:10 AM,82.4,68.0,62,29.89,3.1,NNW,6.9,-,N/A,,Smoke,340,2013-03-25 03:40:00
9:40 AM,84.2,68.0,58,29.89,3.1,NNW,5.8,-,N/A,,Smoke,330,2013-03-25 04:10:00
10:10 AM,84.2,66.2,55,29.89,3.1,ENE,4.6,-,N/A,,Smoke,70,2013-03-25 04:40:00
10:40 AM,86.0,66.2,51,29.86,2.5,WNW,4.6,-,N/A,,Smoke,300,2013-03-25 05:10:00
11:10 AM,87.8,68.0,52,29.86,2.5,NW,4.6,-,N/A,,Smoke,320,2013-03-25 05:40:00
11:30 AM,90,69,41,29.87,1,NW,6.9,,,,Smoke,320,2013-03-25 06:00:00
11:40 AM,87.8,69.8,55,29.86,2.5,West,9.2,-,N/A,,Smoke,270,2013-03-25 06:10:00
12:10 PM,87.8,71.6,58,29.83,2.8,West,9.2,-,N/A,,Smoke,280,2013-03-25 06:40:00
12:40 PM,87.8,71.6,58,29.83,2.8,West,11.5,-,N/A,,Smoke,280,2013-03-25 07:10:00
1:10 PM,89.6,71.6,55,29.80,2.8,West,10.4,-,N/A,,Smoke,280,2013-03-25 07:40:00
2:10 PM,89.6,71.6,55,29.77,3.1,West,8.1,19.6,N/A,,Smoke,280,2013-03-25 08:40:00
2:30 PM,91,69,39,29.77,1,WNW,9.2,,,,Smoke,290,2013-03-25 09:00:00
2:40 PM,89.6,68.0,49,29.77,3.1,WNW,10.4,21.9,N/A,,Smoke,290,2013-03-25 09:10:00
3:10 PM,89.6,68.0,49,29.74,3.1,WNW,9.2,20.7,N/A,,Smoke,300,2013-03-25 09:40:00
3:40 PM,87.8,69.8,55,29.74,3.1,WNW,8.1,19.6,N/A,,Smoke,300,2013-03-25 10:10:00
4:10 PM,89.6,66.2,46,29.74,3.1,NW,8.1,19.6,N/A,,Smoke,310,2013-03-25 10:40:00
4:40 PM,89.6,66.2,46,29.74,3.1,NW,10.4,-,N/A,,Smoke,320,2013-03-25 11:10:00
5:10 PM,89.6,66.2,46,29.71,3.1,WNW,12.7,-,N/A,,Smoke,290,2013-03-25 11:40:00
5:30 PM,89,67,38,29.72,1,WNW,9.2,,,,Smoke,290,2013-03-25 12:00:00
5:40 PM,87.8,68.0,52,29.71,3.1,WNW,10.4,-,N/A,,Smoke,290,2013-03-25 12:10:00
6:10 PM,84.2,68.0,58,29.74,3.1,WNW,15.0,-,N/A,,Smoke,300,2013-03-25 12:40:00
6:40 PM,84.2,68.0,58,29.74,3.1,WNW,12.7,-,N/A,,Smoke,300,2013-03-25 13:10:00
7:10 PM,84.2,68.0,58,29.74,2.8,NW,8.1,-,N/A,,Smoke,310,2013-03-25 13:40:00
7:40 PM,82.4,66.2,58,29.74,2.5,NW,10.4,-,N/A,,Smoke,310,2013-03-25 14:10:00
8:10 PM,82.4,66.2,58,29.74,2.5,NW,8.1,-,N/A,,Smoke,320,2013-03-25 14:40:00
8:30 PM,82,67,52,29.75,1,NW,6.9,,,,Smoke,320,2013-03-25 15:00:00
8:40 PM,82.4,66.2,58,29.77,2.8,NW,5.8,-,N/A,,Smoke,320,2013-03-25 15:10:00
9:10 PM,82.4,66.2,58,29.77,2.8,North,4.6,-,N/A,,Smoke,350,2013-03-25 15:40:00
9:40 PM,82.4,66.2,58,29.77,2.8,North,4.6,-,N/A,,Smoke,360,2013-03-25 16:10:00
10:40 PM,82.4,69.8,66,29.80,3.1,NW,5.8,-,N/A,,Smoke,310,2013-03-25 17:10:00
11:10 PM,82.4,69.8,66,29.80,3.1,NW,6.9,-,N/A,,Smoke,310,2013-03-25 17:40:00
11:30 PM,81,71,64,29.79,1,NW,9.2,,,,Smoke,320,2013-03-25 18:00:00
11:40 PM,80.6,69.8,70,29.80,3.1,WNW,9.2,-,N/A,,Smoke,300,2013-03-25 18:10:00